KellyUSA Airport, TX

3:09 AM CDT on June 26, 2017 (GMT -0500)
Kelly Air Force Base

Weather History for KSKF - January, 2014

Change the Weather History Date:

Sunday, January 12, 2014

  Actual Average Record
Temperature  
Mean Temperature 52 °F -  
Max Temperature 69 °F 63 °F 78 °F (2006)
Min Temperature 34 °F 41 °F 26 °F (1997)
Degree Days  
Heating Degree Days 14    
Growing Degree Days 2 (Base 50)    
Moisture  
Dew Point 48 °F    
Average Humidity 78    
Maximum Humidity 95    
Minimum Humidity 59    
Precipitation  
Precipitation 0.00 in - - ()
Sea Level Pressure  
Sea Level Pressure 29.99 in    
Wind  
Wind Speed 3 mph (SSE)    
Max Wind Speed 9 mph    
Max Gust Speed -    
Visibility 10 miles    
Events Rain    
Averages and records for this station are not official NWS values.
T = Trace of Precipitation, MM = Missing Value Source: NWS Daily Summary

Daily Weather History Graph

Daily Weather History Graph

Search for Another Location

Airport or City:

Trip Planner

Search our weather history database for the weather conditions in past years. The results will help you decide how hot, cold, wet, or windy it might be!

Date:

Astronomy

Jan. 12, 2014 Rise Set
Actual Time 7:29 AM CST 5:55 PM CST
Civil Twilight 7:04 AM CST 6:21 PM CST
Nautical Twilight 6:34 AM CST 6:50 PM CST
Astronomical Twilight 6:06 AM CST 7:19 PM CST
Moon 3:23 PM CST (1/12) 4:31 AM CST (1/12)
Length of Visible Light 11h 17m
Length of Day
10h 25m
Waxing Gibbous, 90% of the Moon is Illuminated
Jan 12
Waxing Gibbous
Jan 15
Full
Jan 23
Last Quarter
Jan 30
New
Feb 6
First Quarter

Hourly Weather History & Observations

Time (CST) Temp. Windchill Dew Point Humidity Pressure Visibility Wind Dir Wind Speed Gust Speed Precip Events Conditions
12:58 AM 39.7 °F - 33.1 °F 77% 30.10 in 10.0 mi NW 2.3 mph - N/A   Clear
1:58 AM 40.5 °F 38.4 °F 33.3 °F 75% 30.09 in 10.0 mi NNW 3.5 mph - N/A   Clear
2:58 AM 36.9 °F 34.3 °F 32.0 °F 83% 30.08 in 10.0 mi NW 3.5 mph - N/A   Clear
3:58 AM 36.3 °F 32.5 °F 32.2 °F 85% 30.08 in 10.0 mi WNW 4.6 mph - N/A   Clear
4:58 AM 35.4 °F - 31.5 °F 85% 30.07 in 10.0 mi WNW 2.3 mph - N/A   Clear
5:58 AM 36.0 °F - 31.8 °F 85% 30.07 in 10.0 mi WNW 2.3 mph - N/A   Clear
6:58 AM 34.7 °F 31.8 °F 31.5 °F 88% 30.08 in 10.0 mi NW 3.5 mph - N/A   Clear
7:58 AM 36.3 °F - 32.5 °F 86% 30.10 in 10.0 mi NW 2.3 mph - N/A   Clear
8:58 AM 47.3 °F - 37.9 °F 70% 30.11 in 10.0 mi NNW 1.2 mph - N/A   Clear
9:58 AM 52.9 °F - 40.6 °F 63% 30.12 in 10.0 mi North 1.2 mph - N/A   Scattered Clouds
10:40 AM 53.6 °F - 41.0 °F 62% 30.11 in 10.0 mi Calm Calm - N/A Rain Light Rain
10:48 AM 53.6 °F - 41.0 °F 62% 30.11 in 10.0 mi Calm Calm - N/A   Scattered Clouds
10:58 AM 54.5 °F - 41.9 °F 62% 30.12 in 10.0 mi Calm Calm - 0.00 in   Scattered Clouds
11:53 AM 57.2 °F - 48.2 °F 72% 30.06 in 10.0 mi SSE 6.9 mph - N/A Rain Light Rain
11:58 AM 57.4 °F - 48.0 °F 71% 30.05 in 10.0 mi SE 8.1 mph - 0.00 in Rain Light Rain
12:11 PM 57.2 °F - 50.0 °F 77% 30.03 in 10.0 mi SE 4.6 mph - N/A   Mostly Cloudy
12:58 PM 60.1 °F - 50.2 °F 70% 30.01 in 10.0 mi West 1.2 mph - 0.00 in   Partly Cloudy
1:04 PM 60.8 °F - 50.0 °F 68% 30.00 in 10.0 mi SW 3.5 mph - N/A Rain Light Rain
1:13 PM 60.8 °F - 50.0 °F 68% 29.99 in 10.0 mi WNW 4.6 mph - N/A   Partly Cloudy
1:58 PM 64.0 °F - 51.3 °F 63% 29.96 in 10.0 mi SW 2.3 mph - 0.00 in   Mostly Cloudy
2:58 PM 66.7 °F - 53.4 °F 62% 29.93 in 10.0 mi SE 4.6 mph - N/A   Overcast
3:58 PM 68.5 °F - 53.8 °F 59% 29.92 in 10.0 mi South 9.2 mph - N/A   Clear
4:58 PM 69.4 °F - 54.5 °F 59% 29.92 in 10.0 mi South 8.1 mph - N/A   Scattered Clouds
5:58 PM 63.7 °F - 53.8 °F 70% 29.92 in 10.0 mi Calm Calm - N/A   Partly Cloudy
6:58 PM 60.8 °F - 53.2 °F 76% 29.91 in 10.0 mi ESE 6.9 mph - N/A   Scattered Clouds
7:58 PM 63.0 °F - 55.0 °F 75% 29.89 in 10.0 mi SE 6.9 mph - N/A   Mostly Cloudy
8:58 PM 61.3 °F - 57.6 °F 87% 29.93 in 10.0 mi SE 5.8 mph - N/A   Mostly Cloudy
9:18 PM 60.8 °F - 57.2 °F 88% 29.93 in 10.0 mi SSE 5.8 mph - N/A   Overcast
9:58 PM 61.5 °F - 58.6 °F 90% 29.93 in 10.0 mi SSE 5.8 mph - N/A   Mostly Cloudy
10:08 PM 60.8 °F - 59.0 °F 94% 29.92 in 10.0 mi SE 5.8 mph - N/A   Overcast
10:18 PM 60.8 °F - 59.0 °F 94% 29.91 in 10.0 mi ESE 6.9 mph - N/A   Mostly Cloudy
10:43 PM 62.6 °F - 59.0 °F 88% 29.91 in 10.0 mi East 3.5 mph - N/A   Overcast
10:58 PM 62.1 °F - 59.2 °F 90% 29.91 in 10.0 mi ESE 2.3 mph - N/A   Overcast
11:38 PM 60.8 °F - 59.0 °F 94% 29.90 in 10.0 mi ESE 3.5 mph - N/A   Overcast
11:43 PM 60.8 °F - 59.0 °F 94% 29.90 in 10.0 mi East 1.2 mph - N/A   Overcast
11:48 PM 60.8 °F - 59.0 °F 94% 29.90 in 10.0 mi Calm Calm - N/A   Overcast
11:53 PM 60.8 °F - 59.0 °F 94% 29.89 in 10.0 mi SE 5.8 mph - N/A   Overcast
11:58 PM 60.8 °F - 59.4 °F 95% 29.89 in 10.0 mi SSE 6.9 mph - N/A   Overcast